Regional Weather Roundup
Issued by NWS Kansas City/Pleasant Hill, MO

Home | Current Version | Previous Version | Graphics & Text | Print | Product List | Glossary Off
Versions: 1 2 3 4 5 6 7 8 9 10 11 12 13 14 15 16 17 18 19 20 21 22 23 24 25 26 27 28 29 30 31 32 33 34 35 36 37 38 39 40 41 42 43 44 45 46 47 48 49 50

000
ASUS43 KEAX 231204
RWREAX

WEATHER ROUNDUP FOR EASTERN KANSAS AND NORTHWEST MISSOURI
NATIONAL WEATHER SERVICE KANSAS CITY/PLEASANT HILL MO
700 AM CDT SAT MAY 23 2015

KSZ040-057-103>105-MOZ028-029-037-043-231300-
...KANSAS CITY METROPOLITAN AREA...

CITY           SKY/WX    TMP DP  RH WIND       PRES   REMARKS
K.C. INTL      LGT RAIN  57  54  89 S9G17     30.23R
6HR MIN TEMP:  57; 6HR MAX TEMP:  61; 6HR PCP: TRACE;

K.C. DOWNTOWN  LGT RAIN  58  53  84 S5        30.22R
6HR MIN TEMP:  58; 6HR MAX TEMP:  64; 6HR PCP:  0.02;

LEES SUMMIT    CLOUDY    59  51  75 S7        30.24R
6HR MIN TEMP:  59; 6HR MAX TEMP:  62; 6HR PCP: TRACE;

OLATHE - IXD   CLOUDY    57  54  89 SE7       30.23R
6HR MIN TEMP:  56; 6HR MAX TEMP:  60; 6HR PCP:  0.03;

OLATHE - OJC   CLOUDY    57  54  89 SE6       30.22R
6HR MIN TEMP:  56; 6HR MAX TEMP:  60; 6HR PCP:  0.03;

LAWRENCE       CLOUDY    58  53  84 SE6       30.22R

$$

MOZ001>008-011>017-020>025-030>033-038>040-044>046-053-054-231300-
...NORTHERN AND CENTRAL MISSOURI...

CITY           SKY/WX    TMP DP  RH WIND       PRES   REMARKS
ST. JOSEPH     LGT RAIN  57  55  93 CALM      30.22S
6HR MIN TEMP:  56; 6HR MAX TEMP:  60; 6HR PCP:  0.14;

MOSBY          CLOUDY    61  52  72 CALM      30.24R
WARRENSBURG    CLOUDY    59  50  72 SE5       30.24R
WHITEMAN AFB   CLOUDY    60  51  73 SE5       30.24R
6HR MIN TEMP:  60; 6HR MAX TEMP:  61;

CLINTON        CLOUDY    61  52  72 SE5       30.25R
SEDALIA        CLOUDY    60  51  72 SE7       30.26R
6HR MIN TEMP:  60; 6HR MAX TEMP:  62; 6HR PCP: TRACE;

WARSAW         NOT AVBL
CHILLICOTHE      N/A     61  54  77 SE3       30.26R
6HR MIN TEMP:  58; 6HR MAX TEMP:  61;

KIRKSVILLE     CLOUDY    58  55  90 SE5       30.28R
6HR MIN TEMP:  50; 6HR MAX TEMP:  59;


$$

MOZ041-047>049-056>058-063>065-088>090-097-231300-
...EASTERN AND SOUTHERN MISSOURI...

CITY           SKY/WX    TMP DP  RH WIND       PRES   REMARKS
ST. LOUIS INTL PTSUNNY   64  56  75 CALM      30.32R
6HR MIN TEMP:  63; 6HR MAX TEMP:  67; 6HR PCP: TRACE;

SPIRIT OF STL  CLOUDY    60  58  92 CALM      30.30R
COLUMBIA       PTSUNNY   59  53  80 SE6       30.28R
JEFFERSON CITY CLOUDY    60  54  80 SE5       30.28R
ROLLA          CLOUDY    59  50  72 SE9       30.27S
OSAGE BEACH    CLOUDY    59  48  67 E5        30.26S
SPRINGFIELD    CLOUDY    60  49  66 S13       30.24R
BRANSON        CLOUDY    55  52  88 E7        30.27R
JOPLIN         LGT RAIN  57  55  93 E6        30.23R FOG
WEST PLAINS    CLOUDY    59  48  67 E5        30.29R

$$

IAZ060-094-KSZ022-034>040-054-083-096-NEZ052-066-093-231300-
...KANSAS...SOUTHEAST NEBRASKA AND IOWA...

CITY           SKY/WX    TMP DP  RH WIND       PRES   REMARKS
TOPEKA         CLOUDY    58  53  84 SE6       30.21R
6HR MIN TEMP:  57; 6HR MAX TEMP:  61; 6HR PCP:  0.01;

MANHATTAN      CLOUDY    58  55  90 S6        30.17R
EMPORIA        CLOUDY    56  55  97 SE9       30.18F FOG
CHANUTE        CLOUDY    57  57 100 SE6       30.21R FOG
WICHITA        CLOUDY    56  55  97 E8        30.14F FOG
OMAHA          CLOUDY    59  51  75 SE6       30.21R
LINCOLN        CLOUDY    56  51  84 S8        30.20R
FALLS CITY     CLOUDY    56  54  93 SE3       30.21R
LAMONI         CLOUDY    58  52  80 E5        30.25R
DES MOINES     PTSUNNY   57  49  74 E3        30.26R

$$



USA.gov is the U.S. government's official web portal to all federal, state and local government web resources and services.